Location: Newark
(52.7603°N, 20.3703°E)
Time: 12:10:56
(UTC+00:00)

ISS - Visible Passes

Search period start: 24 September 2020 00:00
Search period end: 04 October 2020 00:00
Orbit: 419 x 420 km, 51.6° (Epoch: 24 September)

Date Brightness Start Highest point End Pass type
(mag) Time Alt. Az. Time Alt. Az. Time Alt. Az.
24 Sep -3.8 18:10:28 10° WSW 18:13:50 71° S 18:14:49 42° ESE visible
24 Sep -0.8 19:47:13 10° W 19:47:47 14° W 19:47:47 14° W visible
25 Sep -3.6 17:23:07 10° WSW 17:26:28 64° SSE 17:29:13 14° E visible
25 Sep -2.6 18:59:50 10° W 19:02:10 40° WSW 19:02:10 40° WSW visible
26 Sep -3.8 18:12:26 10° W 18:15:49 74° S 18:16:32 51° ESE visible
26 Sep -0.5 19:49:16 10° W 19:49:29 11° W 19:49:29 11° W visible
27 Sep -3.7 17:25:03 10° W 17:28:25 75° S 17:30:53 17° E visible
27 Sep -2.1 19:01:49 10° W 19:03:50 30° WSW 19:03:50 30° WSW visible
28 Sep -3.6 18:14:24 10° W 18:17:44 59° SSW 18:18:10 53° SSE visible
29 Sep -3.6 17:26:58 10° W 17:30:20 68° S 17:32:31 20° ESE visible
29 Sep -1.5 19:03:53 10° W 19:05:29 21° WSW 19:05:29 21° WSW visible
30 Sep -2.9 18:16:22 10° W 18:19:31 38° SSW 18:19:50 37° S visible
01 Oct -3.1 17:28:52 10° W 17:32:09 48° SSW 17:34:14 20° SE visible
01 Oct -0.9 19:06:19 10° WSW 19:07:11 13° WSW 19:07:11 13° WSW visible
02 Oct -3.3 16:41:23 10° W 16:44:44 59° SSW 16:48:03 10° ESE visible
02 Oct -1.9 18:18:30 10° W 18:21:08 21° SSW 18:21:37 21° SSW visible
03 Oct -2.2 17:30:51 10° W 17:33:49 29° SSW 17:36:07 14° SSE visible
